Regional Weather Roundup
Issued by NWS

Home | Current Version | Previous Version | Text Only | Print | Product List | Glossary Off
Versions: 1 2 3 4 5 6 7 8 9 10 11 12 13 14 15 16 17 18 19 20 21 22 23 24 25 26 27 28 29 30 31 32 33 34 35 36 37 38 39 40 41 42 43 44 45 46 47 48 49 50

000
ASUS43 KMPX 161001
RWRMN
WEATHER ROUNDUP FOR MINNESOTA
NATIONAL WEATHER SERVICE TWIN CITIES/CHANHASSEN MN
500 AM CDT WED APR 16 2014


NOTE: "FAIR" INDICATES FEW OR NO CLOUDS BELOW 12,000 FEET WITH NO
SIGNIFICANT WEATHER AND/OR OBSTRUCTIONS TO VISIBILITY. N/A MEANS
CURRENT SKY AND/OR WEATHER CONDITIONS ARE NOT AVAILABLE.

MNZ060>063-068>070-161100-
   Twin Cities Metro

CITY           SKY/WX    TMP DP  RH WIND       PRES   REMARKS
TWIN CITIES    CLOUDY    33  17  51 E22       29.99F WCI  21
ST PAUL        CLOUDY    32  19  58 E13       30.02F WCI  22
CRYSTAL        CLOUDY    33  19  56 E14       29.98F WCI  23
BLAINE         CLOUDY    32  27  80 E15       30.00F WCI  22
EDEN PRAIRIE   CLOUDY    35  16  45 E17G26    29.94F WCI  25
LAKEVILLE      CLOUDY    30  19  64 E20G25    29.97F WCI  18
SOUTH ST PAUL  CLOUDY    37  17  45 E6G16     30.01F
LAKE ELMO      CLOUDY    32  25  74 E15G21    30.03F WCI  22
$$
MNZ001>005-007-008-013>017-022>024-027-028-161100-
   Northwest Minnesota

CITY           SKY/WX    TMP DP  RH WIND       PRES   REMARKS
BEMIDJI        CLOUDY    26   5  41 E9        30.02S WCI  16
HALLOCK        CLOUDY    25  10  54 E12       30.09R WCI  14
ROSEAU         PTCLDY    21  10  63 E10       30.12R WCI  10
WARROAD        PTCLDY    16   9  73 NE9       30.13R WCI   4
THIEF RVR FALL MOCLDY    25   9  50 E14       30.05R WCI  13
CROOKSTON      MOCLDY    28  10  47 E12       30.04R WCI  18
FOSSTON        CLOUDY    27   7  43 E9        30.01S WCI  17
DETROIT LAKES  LGT SNOW  27  23  86 E9        29.96S WCI  17
MOORHEAD       CLOUDY    28  28 100 E13G21    29.96S WCI  18
PARK RAPIDS    CLOUDY    28   5  37 E12       29.98S WCI  18
$$
MNZ006-009>011-018-025>026-161100-
   North Central Minnesota

CITY           SKY/WX    TMP DP  RH WIND       PRES   REMARKS
BAUDETTE       PTCLDY    17   6  62 NE6       30.12R WCI   9
FLAG ISLAND    MOCLDY    18   1  49 NE3       30.14R
INTL FALLS     PTCLDY    17   3  54 E7        30.13R WCI   8
WASKISH        CLOUDY    19   9  63 E7        30.09R WCI  10
BIG FORK       CLOUDY    21   3  45 E6        30.09R WCI  14
LONGVILLE      CLOUDY    27   3  36 E3        30.03S
GRAND RAPIDS   CLOUDY    25   5  42 E3        30.06R
CRANE LAKE     PTCLDY     5   1  85 CALM      30.16R
ORR            MOCLDY    16   1  53 CALM      30.09R
COOK           MOCLDY    16   7  67 CALM      30.11R
$$
MNZ012-019>021-037-161100-
   Northeast Minnesota

CITY           SKY/WX    TMP DP  RH WIND       PRES   REMARKS
DULUTH         CLOUDY    24  11  57 E9        30.09R WCI  14
ELY            MOCLDY     9   7  92 CALM      30.12R
HIBBING        CLOUDY    22   7  52 E7        30.08R WCI  13
EVELETH        CLOUDY    21   7  53 NE5       30.10S WCI  15
DULUTH HARBOR  CLOUDY    27  19  74 CALM      30.15S
TWO HARBORS    CLOUDY    21   7  53 NE3       30.11R
SILVER BAY     CLOUDY    18  10  73 CALM      30.12R
GRAND MARAIS     N/A     20   4  50 NE5       30.19R WCI  13
G MARAIS ARPRT PTCLDY     3  -6  66 N5        30.11R WCI  -6
$$
MNZ029>031-032-039>041-046>048-054>057-064-161100-
   West Central Minnesota

CITY           SKY/WX    TMP DP  RH WIND       PRES   REMARKS
FERGUS FALLS   CLOUDY    27  21  80 E10G23    29.90S WCI  17
WHEATON        CLOUDY    32  25  74 E21       29.89S WCI  20
MORRIS         CLOUDY    28  21  74 E25G31    29.86S WCI  14
ALEXANDRIA     CLOUDY    27  22  81 E20G26    29.91F WCI  13
ELBOW LAKE     CLOUDY    28  24  83 E21G30    29.88F WCI  15
WADENA         LGT SNOW  25  21  86 E10       29.96S VSB 1   WCI  15
GLENWOOD       CLOUDY    27  25  93 E23G36    29.90S WCI  12
APPLETON       CLOUDY    32  21  64 E21G26    29.83F WCI  20
BENSON         CLOUDY    30  21  69 SE18G24   29.86S WCI  18
ORTONVILLE     CLOUDY    30  21  69 E17       29.83R WCI  18
MADISON        CLOUDY    36  21  55 E20G26    29.80F
WILLMAR        FAIR      32  19  59 E20G33    29.88S WCI  20
$$
MNZ033>034-036-042>043-049>051-058-059-161100-
   Central Minnesota

CITY           SKY/WX    TMP DP  RH WIND       PRES   REMARKS
ST CLOUD       CLOUDY    29  24  82 E13G24    29.97F WCI  19
SAUK CENTRE    CLOUDY    27  23  87 E16G26    29.93F WCI  14
PAYNESVILLE    CLOUDY    29  24  82 E15G23    29.91F WCI  17
AITKIN         CLOUDY    30   3  31 E7        30.03S WCI  23
PINE RIVER     CLOUDY    28   9  43 E10       30.05R WCI  19
BRAINERD       CLOUDY    33  11  39 SE10G18   30.02R WCI  25
STAPLES        LGT SNOW  23  21  93 E9        29.98F WCI  13
LONG PRAIRIE   CLOUDY    25  23  93 E15G23    29.95S WCI  12
LITTLE FALLS   LGT SNOW  27  23  86 E8        29.99F WCI  18
LITCHFIELD     CLOUDY    30  25  80 E16G25    29.91F WCI  19
BUFFALO        CLOUDY    29  25  83 NE16G22   29.97F WCI  18
MAPLE LAKE     CLOUDY    30  27  89 E16G25    29.95F WCI  18
$$
MNZ037-044-045-052-053-161100-
   East Central Minnesota

CITY           SKY/WX    TMP DP  RH WIND       PRES   REMARKS
PRINCETON      LGT SNOW  28  27  93 E12       30.01F WCI  18
MORA           LGT SNOW  27  23  86 E9        30.07S VSB 1   WCI  17
CAMBRIDGE      LGT SNOW  30  23  74 E9        30.02F WCI  22
RUSH CITY      LGT SNOW  27  25  90 E8        30.06F WCI  19
MOOSE LAKE     CLOUDY    28   9  43 E5        30.05F WCI  23
HINCKLEY       CLOUDY    30  12  47 E7        30.06F WCI  23
CLOQUET        CLOUDY    25   7  46 E5        30.08S WCI  19
MCGREGOR       CLOUDY    28   9  43 E9        30.05F WCI  20
$$
MNZ071>073-080-081-089-090-097-098-161100-
   Southwest Minnesota

CITY           SKY/WX    TMP DP  RH WIND       PRES   REMARKS
MONTEVIDEO     CLOUDY    32  19  59 SE20G30   29.83F WCI  20
GRANITE FALLS  CLOUDY    33  20  58 E21G29    29.83F WCI  21
CANBY          CLOUDY    33  23  67 E21G26    29.78F WCI  20
MARSHALL       CLOUDY    34  19  55 E21G29    29.75F WCI  22
REDWOOD FALLS  CLOUDY    34  20  56 E15G26    29.83F WCI  24
OLIVIA         CLOUDY    34  21  60 E22G28    29.84F WCI  22
PIPESTONE      CLOUDY    36  27  69 SE14G21   29.67F
WINDOM         CLOUDY    34  25  69 SE14      29.77F WCI  24
WORTHINGTON    CLOUDY    37  25  60 SE15      29.73F
JACKSON        CLOUDY    36  27  69 SE17G23   29.76F
TRACY          CLOUDY    34  23  65 E16       29.76F WCI  23
SLAYTON        CLOUDY    34  26  72 E14G21    29.73F WCI  24
$$
MNZ065>067-074>077-082>085-091>093-161100-
   South Central Minnesota

CITY           SKY/WX    TMP DP  RH WIND       PRES   REMARKS
MANKATO        CLOUDY    36  19  51 SE23G33   29.89F
NEW ULM        CLOUDY    36  19  51 SE16G25   29.85F
ST JAMES       CLOUDY    36  23  60 E15       29.84S
FAIRMONT       CLOUDY    36  23  60 SE21      29.82F
GLENCOE        CLOUDY    34  18  51 E17G23    29.92S WCI  23
FARIBAULT      CLOUDY    36  16  44 E14G23    29.94F
OWATONNA       CLOUDY    34  19  55 E23G35    29.91F WCI  22
WASECA         CLOUDY    36  23  60 E26G32    29.91F
ALBERT LEA     CLOUDY    34  21  60 SE24G32   29.89F WCI  21
$$
MNZ078>079-086>088-094>096-161100-
   Southeast Minnesota

CITY           SKY/WX    TMP DP  RH WIND       PRES   REMARKS
ROCHESTER      CLOUDY    32  19  58 SE22      29.99F WCI  19
RED WING       CLOUDY    36  16  44 E16G23    30.03F
STANTON        CLOUDY    34  19  54 E14G23    29.96F WCI  24
DODGE CENTER   CLOUDY    34  19  55 SE23      29.94F WCI  22
WINONA         MOCLDY    34  23  64 SE9       30.09S WCI  26
AUSTIN         CLOUDY    34  19  55 SE22G29   29.93F WCI  22
PRESTON        CLOUDY    32  19  58 SE15G21   30.03S WCI  22
$$
ABBREVIATIONS USED IN REMARKS
   TC - TEMPERATURES IN CELSIUS
  WCI - WIND CHILL INDEX
   HX - HEAT INDEX
  VSB - VISIBILITY
$$



USA.gov is the U.S. government's official web portal to all federal, state and local government web resources and services.